Location: Buisson
(44.2787°N, 4.9969°E)
Time: 01:07:31
(UTC+00:00)

Cosmos 1805 - Pass Details

Date: 18 April 2021
Orbit: 524 x 530 km, 82.5° (Epoch: 07 May)

Event Time Altitude Azimuth Distance (km) Brightness Sun altitude
Rises 03:10:14 0° 351° (N) 2,682 7.2 -17.1°
Reaches altitude 10° 03:12:23 10° 352° (N) 1,786 6.3 -16.8°
Maximum altitude 03:16:19 86° 80° (E) 537 3.2 -16.2°
Drops below altitude 10° 03:20:13 10° 171° (S) 1,769 5.7 -15.6°
Enters shadow 03:21:22 - 172° (S) 2,245 6.2 -15.5°
